KLM457 LATI-LGSA

Flight info

Callsign KLM457
Flight time 0h -33m
Altitude 37000
Route ELBAK DCT DIMIS UL604 TRL UJ65 SOKRI
Aircraft B763/H-SDE3FGHIM3RWXY/LB1

Departure

Time 2026-05-08 18:24
Airport Tirana International Airport Mother Teresa (LATI)

Arrival

Time 2026-05-08 17:51
Airport Chania International Airport (LGSA)
Time Latitude Longitude Altitude Speed Heading
2026-05-08 17:50 41.42670 19.71502 123 ft 0 kts 173°
2026-05-08 17:51 35.53726 24.14396 375 ft 0 kts 292°
2026-05-08 17:52 41.42457 19.71459 241 ft 0 kts 264°
2026-05-08 18:18 41.42457 19.71458 123 ft 0 kts 264°
2026-05-08 18:18 41.42456 19.71458 123 ft 0 kts 264°
2026-05-08 18:19 41.42456 19.71455 123 ft 2 kts 256°
2026-05-08 18:19 41.42431 19.71455 123 ft 4 kts 128°
2026-05-08 18:19 41.42439 19.71476 123 ft 2 kts 25°
2026-05-08 18:19 41.42457 19.71486 123 ft 4 kts 22°
2026-05-08 18:20 41.42497 19.71502 123 ft 7 kts 10°
2026-05-08 18:20 41.42561 19.71500 123 ft 11 kts 355°
2026-05-08 18:20 41.42647 19.71511 123 ft 12 kts 32°
2026-05-08 18:20 41.42669 19.71582 123 ft 9 kts 76°
2026-05-08 18:21 41.42682 19.71705 123 ft 18 kts 86°
2026-05-08 18:21 41.42673 19.71874 123 ft 16 kts 124°
2026-05-08 18:21 41.42616 19.71905 123 ft 4 kts 170°
2026-05-08 18:21 41.42610 19.71906 123 ft 0 kts 173°
2026-05-08 18:23 41.42571 19.71912 123 ft 29 kts 174°
2026-05-08 18:24 41.42022 19.71984 123 ft 129 kts 174°
2026-05-08 18:24 41.41296 19.72089 181 ft 184 kts 173°
2026-05-08 18:24 41.39360 19.72363 1308 ft 243 kts 174°
2026-05-08 18:24 41.37555 19.72665 2472 ft 274 kts 171°
2026-05-08 18:25 41.35614 19.73120 4072 ft 293 kts 169°
2026-05-08 18:25 41.33617 19.73643 5070 ft 285 kts 169°
2026-05-08 18:25 41.32345 19.73951 5378 ft 265 kts 170°
2026-05-08 18:25 41.29975 19.74438 5109 ft 259 kts 172°
2026-05-08 18:26 41.28838 19.74667 5645 ft 231 kts 171°
2026-05-08 18:26 41.27271 19.75022 6980 ft 240 kts 169°
2026-05-08 18:26 41.25545 19.75486 7523 ft 263 kts 168°
2026-05-08 18:26 41.23703 19.76028 6571 ft 285 kts 167°
2026-05-08 18:27 41.21596 19.76691 3918 ft 341 kts 166°
2026-05-08 18:27 41.19956 19.77386 1884 ft 393 kts 156°
2026-05-08 18:27 41.17418 19.79341 4892 ft 178 kts 139°
2026-05-08 18:27 41.16707 19.80351 8000 ft 135 kts 134°
2026-05-08 18:28 41.15903 19.81042 8754 ft 146 kts 205°
2026-05-08 18:28 41.14955 19.81494 7786 ft 130 kts 90°
2026-05-08 18:28 41.14220 19.82117 3627 ft 81 kts 248°